DELTA 1 DEB

Satellite information

Favourite Embed

Satellite Type and Status

DEBRISIN ORBIT

Key statistics

Satellite DELTA 1 DEB at a glance.

Uptime

17232

Days in orbit

Revolutions

≈ 14.0

Per day

Orbit

SSO

Sun Synchronous Orbit

Inclination

99.2

Latest

Satellite identification and parameters

Extended collection of information and parameters for DELTA 1 DEB.

Object identification

Identified? True

Debris? True

Object name: DELTA 1 DEB

International designator: 1978-026HH

Object number (NORAD): 18775

Object ID (CCSDS): 18775

Country: UNITED STATES OF AMERICA (US)

Current information (Y/N): Y

RCS size: SMALL

Orbital parameters

Period: 102.92 minutes

Inclination: 99.1684 deg

SMA: 7274.888 km

Apoapsis: 943.434 km

Periapsis: 850.072 km

RAAN: 26.9326 deg

Eccentricy: 0.0064167

Argument of periapsis: 27.4274 deg

Mean anomaly: 333.0253 deg

Mean motion: 13.99146909 rev/day

Mean motion (dot): 0.00000305 rev/day2

B* drag term: 0.00023752 1/REarth

Two-line elements (TLE)

Creation date: May 8, 2025, 3:01 a.m.

Reference frame: TEME

Reference center: EARTH

Epoch: May 7, 2025, 4:19 a.m. UTC

TLE line 0: 0 DELTA 1 DEB

TLE line 1: 1 18775U 78026HH 25127.18043375 .00000305 00000-0 23752-3 0 9999

TLE line 2: 2 18775 99.1684 26.9326 0064167 27.4274 333.0253 13.99146909859681

Live tracking on map

Real-time ground track for satellite DELTA 1 DEB.

In-orbit conjunctions

A list of the most updated potential collisions computed for object DELTA 1 DEB.

Target Orbit TCA Probability of collision Miss distance Type
METEOR 1-15 LEO 2024-12-11 22:41:52 0.01075715 12.0 (m) PAYLOAD

Associated space launch

Earth observation satellite

DELTA 1 DEB was lifted into orbit during the mission ‘Delta 2910 | Landsat 3’, on board a Delta 2910 space rocket.

The launch took place on March 5, 1978, 5:54 p.m. from Space Launch Complex 2W.

For more information about the launch, click the button.

Launch to space Delta 2910 | Landsat 3
Delta 2910 | Landsat 3

Agency: N/A

Status: Launch Successful

Launch date: March 5, 1978, 5:54 p.m. UTC

Rocket: Delta 2910

Launch pad: Space Launch Complex 2W

Location: Vandenberg SFB, CA, USA

...

Latest news about this satellite

There are no fresh news available about this satellite. Check back as we update our databases every day.


Newsletter sign-up

Weekly statistics, charts and insights to help you stay on top of the space industry.